Bangkok (Suvarnabhumi), Thailand

10:02 AM +07 on August 24, 2017 (GMT +0700)
Bangkok (Suvarnabhumi)

Weather History for VTBS - January, 2013

Change the Weather History Date:

Thursday, January 10, 2013

  Actual Average (VTBU) Record (VTBU)
Temperature  
Mean Temperature 82 °F -  
Max Temperature 90 °F 90 °F 93 °F (1998)
Min Temperature 73 °F 70 °F 66 °F (2003)
Cooling Degree Days 16    
Growing Degree Days 32 (Base 50)    
Moisture  
Dew Point 69 °F    
Average Humidity 68    
Maximum Humidity 89    
Minimum Humidity 31    
Precipitation  
Precipitation 0.00 in 0.02 in - ()
Sea Level Pressure  
Sea Level Pressure 29.83 in    
Wind  
Wind Speed 4 mph ()    
Max Wind Speed 10 mph    
Max Gust Speed -    
Visibility 4.6 miles    
Events      
Averages and records for this station are not official NWS values.
T = Trace of Precipitation, MM = Missing Value Source: Averaged Metar Reports

Daily Weather History Graph

Daily Weather History Graph

Search for Another Location

Airport or City:

Trip Planner

Search our weather history database for the weather conditions in past years. The results will help you decide how hot, cold, wet, or windy it might be!

Date:

Astronomy

Jan. 10, 2013 Rise Set
Actual Time 6:41 AM +07 6:05 PM +07
Civil Twilight 6:18 AM +07 6:28 PM +07
Nautical Twilight 5:52 AM +07 6:54 PM +07
Astronomical Twilight 5:26 AM +07 7:20 PM +07
Moon 4:50 AM +07 (1/10) 4:37 PM +07 (1/10)
Length of Visible Light 12h 09m
Length of Day
11h 23m
Waning Crescent, 4% of the Moon is Illuminated
Jan 10
Waning Crescent
Jan 12
New
Jan 19
First Quarter
Jan 27
Full
Feb 3
Last Quarter

Hourly Weather History & Observations

Time (+07) Temp. Heat Index Dew Point Humidity Pressure Visibility Wind Dir Wind Speed Gust Speed Precip Events Conditions
12:00 AM 75.2 °F - 68.0 °F 78% 29.83 in 5.0 mi Calm Calm - N/A   Unknown
12:30 AM 75.2 °F - 69.8 °F 83% 29.83 in 5.0 mi South 2.3 mph - N/A   Unknown
1:00 AM 76 °F - 66 °F 65% 29.82 in 5 mi Calm Calm - -   Mist
1:00 AM 75.2 °F - 69.8 °F 83% 29.83 in 3.7 mi South 5.8 mph - N/A   Unknown
1:30 AM 75.2 °F - 69.8 °F 83% 29.83 in 3.1 mi SSW 8.1 mph - N/A   Mist
2:00 AM 75.2 °F - 69.8 °F 83% 29.83 in 3.1 mi SSW 3.5 mph - N/A   Mist
2:30 AM 75.2 °F - 69.8 °F 83% 29.80 in 2.5 mi SE 3.5 mph - N/A   Mist
3:00 AM 75.2 °F - 71.6 °F 89% 29.80 in 1.9 mi SE 3.5 mph - N/A   Mist
3:30 AM 75.2 °F - 71.6 °F 89% 29.80 in 1.9 mi East 3.5 mph - N/A   Mist
4:00 AM 75.2 °F - 71.6 °F 89% 29.80 in 3.1 mi East 3.5 mph - N/A   Mist
4:30 AM 73.4 °F - 69.8 °F 88% 29.80 in 3.1 mi East 4.6 mph - N/A   Mist
5:00 AM 73.4 °F - 69.8 °F 88% 29.80 in 3.7 mi East 4.6 mph - N/A   Unknown
5:30 AM 75.2 °F - 71.6 °F 89% 29.80 in 3.7 mi SE 3.5 mph - N/A   Unknown
6:00 AM 73.4 °F - 69.8 °F 88% 29.83 in 3.1 mi ESE 5.8 mph - N/A   Mist
6:30 AM 73.4 °F - 69.8 °F 88% 29.83 in 3.1 mi SE 6.9 mph - N/A   Mist
7:00 AM 78 °F - 72 °F 78% 29.82 in 5 mi Calm Calm - -   Mist
7:00 AM 73.4 °F - 69.8 °F 88% 29.83 in 1.9 mi ESE 3.5 mph - N/A   Mist
7:30 AM 75.2 °F - 69.8 °F 83% 29.86 in 2.5 mi East 4.6 mph - N/A   Mist
8:00 AM 77.0 °F - 71.6 °F 83% 29.86 in 1.9 mi ENE 4.6 mph - N/A   Mist
8:30 AM 78.8 °F - 68.0 °F 69% 29.89 in 2.5 mi East 4.6 mph - N/A   Mist
9:00 AM 82.4 °F 86.3 °F 69.8 °F 66% 29.89 in 3.1 mi East 4.6 mph - N/A   Mist
9:30 AM 84.2 °F 89.6 °F 71.6 °F 66% 29.89 in 3.7 mi ESE 4.6 mph - N/A   Unknown
10:00 AM 84.2 °F 89.6 °F 71.6 °F 66% 29.89 in 4.3 mi East 4.6 mph - N/A   Scattered Clouds
10:30 AM 87.8 °F 93.8 °F 71.6 °F 58% 29.89 in 5.0 mi South 6.9 mph - N/A   Scattered Clouds
11:00 AM 86.0 °F 91.8 °F 71.6 °F 62% 29.89 in 5.6 mi SSE 8.1 mph - N/A   Scattered Clouds
11:30 AM 87.8 °F 93.8 °F 71.6 °F 58% 29.86 in 5.6 mi SW 5.8 mph - N/A   Scattered Clouds
12:00 PM 89.6 °F 94.7 °F 69.8 °F 52% 29.86 in 6.2 mi WSW 6.9 mph - N/A   Scattered Clouds
12:30 PM 89.6 °F 94.7 °F 69.8 °F 52% 29.83 in 6.2 mi SSW 5.8 mph - N/A   Scattered Clouds
1:00 PM 90 °F - 77 °F 57% 29.82 in 4 mi WNW 4.6 mph - -   Mist
1:00 PM 91.4 °F 95.4 °F 68.0 °F 46% 29.83 in 6.2 mi South 10.4 mph - N/A   Scattered Clouds
1:30 PM 91.4 °F 94.0 °F 66.2 °F 43% 29.80 in 6.2 mi SSW 5.8 mph - N/A   Scattered Clouds
2:00 PM 91.4 °F 94.0 °F 66.2 °F 43% 29.80 in 6.2 mi South 8.1 mph - N/A   Scattered Clouds
2:30 PM 91.4 °F 94.0 °F 66.2 °F 43% 29.77 in 6.2 mi SSW 6.9 mph - N/A   Scattered Clouds
3:00 PM 91.4 °F 92.1 °F 62.6 °F 38% 29.77 in 6.2 mi SW 6.9 mph - N/A   Scattered Clouds
3:30 PM 93.2 °F 94.1 °F 62.6 °F 36% 29.77 in 6.2 mi SSW 6.9 mph - N/A   Scattered Clouds
4:00 PM 93.2 °F 92.6 °F 59.0 °F 32% 29.77 in 6.2 mi SW 6.9 mph - N/A   Scattered Clouds
4:30 PM 91.4 °F 90.7 °F 59.0 °F 34% 29.77 in 6.2 mi SSW 6.9 mph - N/A   Scattered Clouds
5:00 PM 91.4 °F 89.9 °F 57.2 °F 31% 29.77 in 6.2 mi SSW 6.9 mph - N/A   Scattered Clouds
5:30 PM 91.4 °F 89.9 °F 57.2 °F 31% 29.77 in 6.2 mi SSW 5.8 mph - N/A   Scattered Clouds
6:00 PM 87.8 °F 90.4 °F 66.2 °F 49% 29.77 in 6.2 mi South 9.2 mph - N/A   Scattered Clouds
6:30 PM 82.4 °F 86.3 °F 69.8 °F 66% 29.80 in 6.2 mi South 9.2 mph - N/A   Scattered Clouds
7:00 PM 83 °F - 74 °F 69% 29.79 in 5 mi Calm Calm - -   Mist
7:00 PM 82.4 °F 86.3 °F 69.8 °F 66% 29.80 in 6.2 mi South 6.9 mph - N/A   Scattered Clouds
7:30 PM 82.4 °F 86.3 °F 69.8 °F 66% 29.80 in 6.2 mi South 5.8 mph - N/A   Scattered Clouds
8:00 PM 82.4 °F 86.3 °F 69.8 °F 66% 29.83 in 6.2 mi South 6.9 mph - N/A   Scattered Clouds
8:30 PM 78.8 °F - 71.6 °F 78% 29.83 in 5.6 mi SW 4.6 mph - N/A   Scattered Clouds
9:00 PM 78.8 °F - 71.6 °F 78% 29.86 in 5.6 mi South 5.8 mph - N/A   Scattered Clouds
9:30 PM 78.8 °F - 71.6 °F 78% 29.86 in 5.6 mi SSW 4.6 mph - N/A   Scattered Clouds
10:00 PM 78.8 °F - 71.6 °F 78% 29.86 in 5.0 mi SW 3.5 mph - N/A   Scattered Clouds
10:30 PM 78.8 °F - 73.4 °F 83% 29.86 in 4.3 mi SSW 4.6 mph - N/A   Scattered Clouds
11:00 PM 78.8 °F - 71.6 °F 78% 29.86 in 4.3 mi South 4.6 mph - N/A   Scattered Clouds
11:30 PM 78.8 °F - 73.4 °F 83% 29.86 in 4.3 mi SSW 3.5 mph - N/A   Scattered Clouds